GW3957 Weather Reports


Display with metric or nautical units.
time (UTC)temp
F
wind
direction
speed
MPH
gust
MPH
rain 1hr
in
rain 24hr
in
rain mn
in
humidity
%
barometer
mb
20260904115729 64 236 1.0 1.0 0.00 0.00 0.00 99 1016.4
20260904115224 64 217 0.0 2.0 0.00 0.00 0.00 99 1016.7
20260904114719 64 186 0.0 0.0 0.00 0.00 0.00 99 1016.5
20260904114218 64 225 0.0 2.0 0.00 0.00 0.00 99 1016.8
20260904113713 64 213 1.0 2.0 0.00 0.00 0.00 99 1016.5
20260904113212 64 189 0.0 1.0 0.00 0.00 0.00 99 1016.5
20260904112708 64 152 0.0 3.0 0.00 0.00 0.00 99 1016.6
20260904112203 64 291 0.0 1.0 0.00 0.00 0.00 99 1016.3
20260904111659 64 231 0.0 0.0 0.00 0.00 0.00 99 1016.4
20260904111154 64 213 0.0 2.0 0.00 0.00 0.00 99 1016.3
20260904110650 64 218 0.0 2.0 0.00 0.00 0.00 99 1016.4
20260904110149 64 229 0.0 1.0 0.00 0.00 0.00 99 1016.3
20260904105643 64 182 0.0 2.0 0.00 0.31 0.31 99 1016.1
20260904105133 64 214 0.0 2.0 0.00 0.31 0.31 99 1016.0
20260904104628 64 233 0.0 1.0 0.00 0.31 0.31 99 1015.8
20260904104124 64 173 0.0 1.0 0.00 0.31 0.31 99 1016.0
20260904103620 64 257 0.0 0.0 0.00 0.31 0.31 99 1016.1
20260904103115 64 218 0.0 0.0 0.00 0.31 0.31 99 1016.0
20260904102611 64 207 0.0 0.0 0.00 0.31 0.31 99 1016.3
20260904102106 64 209 0.0 0.0 0.00 0.31 0.31 99 1016.0
20260904101603 64 258 1.0 1.0 0.00 0.31 0.31 99 1015.7
20260904101058 64 218 0.0 0.0 0.00 0.31 0.31 99 1015.6
20260904100554 64 198 0.0 0.0 0.00 0.31 0.31 99 1016.0
20260904100048 64 233 0.0 1.0 0.00 0.31 0.31 99 1016.0
20260904095544 64 239 1.0 2.0 0.00 0.31 0.31 99 1016.0
20260904095039 65 231 0.0 0.0 0.00 0.31 0.31 99 1016.0
20260904094534 65 224 0.0 1.0 0.00 0.31 0.31 99 1016.1
20260904094029 65 218 0.0 0.0 0.00 0.31 0.31 99 1016.1
20260904093526 65 215 0.0 0.0 0.00 0.31 0.31 99 1016.2
20260904093026 65 191 1.0 1.0 0.00 0.31 0.31 99 1015.7
20260904092521 66 213 0.0 0.0 0.00 0.31 0.31 99 1016.1
20260904092018 66 225 0.0 1.0 0.00 0.31 0.31 99 1016.0
20260904091514 66 188 0.0 0.0 0.00 0.31 0.31 99 1016.0
20260904091013 66 204 2.0 3.0 0.00 0.31 0.31 99 1016.1
20260904090508 66 234 0.0 1.0 0.00 0.31 0.31 99 1015.8
20260904090004 66 235 0.0 0.0 0.00 0.31 0.31 99 1016.1
20260904085459 66 230 0.0 0.0 0.00 0.31 0.31 99 1015.6
20260904084958 66 220 0.0 0.0 0.00 0.31 0.31 99 1015.8
20260904084454 66 219 0.0 0.0 0.00 0.31 0.31 99 1016.1
20260904083950 66 219 0.0 0.0 0.00 0.31 0.31 99 1016.1
20260904083446 66 219 0.0 0.0 0.00 0.31 0.31 99 1015.8
20260904082942 66 219 0.0 0.0 0.00 0.31 0.31 99 1015.8
20260904082437 66 214 0.0 0.0 0.00 0.31 0.31 99 1015.4
20260904081937 66 213 0.0 0.0 0.00 0.31 0.31 99 1015.5
20260904081432 66 214 0.0 0.0 0.00 0.31 0.31 99 1015.5
20260904080928 66 212 0.0 0.0 0.00 0.31 0.31 99 1015.3
20260904080423 66 211 0.0 0.0 0.00 0.31 0.31 99 1015.3
20260904075919 66 217 0.0 0.0 0.00 0.31 0.31 99 1015.5
20260904075415 66 217 0.0 0.0 0.00 0.31 0.31 99 1015.3
20260904074913 66 217 0.0 0.0 0.00 0.31 0.31 99 1015.3
20260904074409 66 217 0.0 0.0 0.00 0.31 0.31 99 1015.1
20260904073904 66 217 0.0 0.0 0.00 0.31 0.31 99 1015.2
20260904073400 66 217 0.0 0.0 0.00 0.31 0.31 99 1015.4
20260904072855 66 217 0.0 0.0 0.00 0.31 0.31 99 1015.3
20260904072350 65 217 0.0 0.0 0.00 0.31 0.31 99 1015.3
20260904071846 65 217 0.0 0.0 0.00 0.31 0.31 99 1015.2
20260904071341 65 217 0.0 0.0 0.00 0.31 0.31 99 1015.4
20260904070836 65 217 0.0 0.0 0.00 0.31 0.31 99 1015.3
20260904070334 65 216 0.0 0.0 0.00 0.31 0.31 99 1015.4
20260904065824 65 217 0.0 0.0 0.00 0.31 0.31 99 1015.3
20260904065320 65 213 0.0 0.0 0.00 0.31 0.31 99 1015.4
20260904064815 64 210 0.0 0.0 0.00 0.31 0.31 99 1015.2
20260904064311 64 208 0.0 0.0 0.00 0.31 0.31 99 1015.3
20260904063807 64 208 0.0 0.0 0.00 0.31 0.31 99 1015.2
20260904063303 64 206 0.0 0.0 0.00 0.31 0.31 99 1015.2
20260904062758 64 206 0.0 0.0 0.00 0.31 0.31 99 1015.4
20260904062254 65 206 0.0 0.0 0.00 0.31 0.31 99 1015.4
20260904061749 65 206 0.0 0.0 0.00 0.31 0.31 99 1015.5
20260904061245 65 206 0.0 0.0 0.00 0.31 0.31 99 1015.4
20260904060742 65 206 0.0 0.0 0.00 0.31 0.31 99 1015.5
20260904060237 65 206 0.0 0.0 0.00 0.31 0.31 99 1015.5
20260904055732 65 206 0.0 0.0 0.00 0.31 0.31 99 1015.5
20260904055227 65 205 0.0 0.0 0.00 0.31 0.31 99 1015.6
20260904054722 65 211 0.0 0.0 0.00 0.31 0.31 99 1016.0
20260904054219 65 211 0.0 0.0 0.00 0.31 0.31 99 1016.0
20260904053714 65 211 0.0 0.0 0.00 0.31 0.31 99 1016.3
20260904053213 65 211 0.0 0.0 0.00 0.31 0.31 99 1016.1
20260904052710 65 227 0.0 0.0 0.00 0.31 0.31 99 1016.1
20260904052206 65 209 0.0 0.0 0.07 0.31 0.31 99 1016.4
20260904051702 66 234 0.0 0.0 0.07 0.31 0.31 99 1016.4
20260904051156 66 222 0.0 0.0 0.00 0.30 0.30 99 1016.4
20260904050652 66 279 0.0 0.0 0.17 0.30 0.30 99 1016.4
20260904050148 66 222 0.0 1.0 0.66 0.30 0.30 99 1016.4
20260904045647 67 143 0.0 2.0 1.21 0.27 0.27 99 1016.7
20260904045142 68 74 1.0 2.0 0.78 0.17 0.17 99 1017.0
20260904044638 67 245 0.0 0.0 0.12 0.05 0.05 99 1016.7
20260904044134 67 211 0.0 0.0 0.05 0.04 0.04 99 1015.8
20260904043630 67 211 0.0 0.0 0.00 0.03 0.03 99 1015.8
20260904043126 68 211 0.0 0.0 0.00 0.03 0.03 99 1016.0
20260904042621 67 200 0.0 0.0 0.00 0.03 0.03 99 1016.3
20260904042117 67 223 0.0 0.0 0.00 0.03 0.03 99 1016.1
20260904041612 67 223 0.0 0.0 0.00 0.03 0.03 99 1015.8
20260904041108 67 224 0.0 0.0 0.07 0.03 0.03 99 1016.2
20260904040603 67 223 0.0 0.0 0.07 0.03 0.03 99 1015.8
20260904040100 66 230 0.0 0.0 0.12 0.02 0.02 99 1016.1
20260904035555 66 229 0.0 0.0 0.07 0.01 0.01 99 1016.3
20260904035055 66 229 0.0 0.0 0.00 0.00 0.00 99 1016.2
20260904034554 66 229 0.0 0.0 0.00 0.00 0.00 99 1016.0
20260904034050 66 229 0.0 0.0 0.00 0.00 0.00 99 1016.2
20260904033546 66 229 0.0 0.0 0.00 0.00 0.00 99 1016.4
20260904033043 66 229 0.0 0.0 0.00 0.00 0.00 99 1016.3
20260904032538 66 229 0.0 0.0 0.00 0.00 0.00 99 1016.3
20260904032037 66 229 0.0 0.0 0.00 0.00 0.00 99 1016.6
20260904031532 66 229 0.0 0.0 0.00 0.00 0.00 99 1016.6
20260904031028 66 229 0.0 0.0 0.00 0.00 0.00 99 1016.7
20260904030524 66 229 0.0 0.0 0.00 0.00 0.00 99 1016.5
20260904030019 66 229 0.0 0.0 0.00 0.00 0.00 99 1016.7
20260904025515 66 229 0.0 0.0 0.00 0.00 0.00 99 1017.0
20260904025015 66 229 0.0 0.0 0.00 0.00 0.00 99 1016.7
20260904024510 66 229 0.0 0.0 0.00 0.00 0.00 99 1016.7
20260904024006 66 229 0.0 0.0 0.00 0.00 0.00 99 1016.8
20260904023502 66 229 0.0 0.0 0.00 0.00 0.00 99 1016.8
20260904022956 66 231 0.0 0.0 0.00 0.00 0.00 99 1016.9
20260904022452 66 231 0.0 0.0 0.00 0.00 0.00 99 1016.8
20260904021949 66 231 0.0 0.0 0.00 0.00 0.00 99 1016.8
20260904021445 66 231 0.0 0.0 0.00 0.00 0.00 99 1017.1
20260904020944 66 231 0.0 0.0 0.00 0.00 0.00 99 1017.2
20260904020440 66 231 0.0 0.0 0.00 0.00 0.00 99 1017.2
20260904015938 66 231 0.0 0.0 0.00 0.00 0.00 99 1017.3
20260904015434 66 226 0.0 0.0 0.00 0.00 0.00 99 1017.3
20260904014932 66 223 0.0 0.0 0.00 0.00 0.00 99 1017.1
20260904014427 66 223 0.0 0.0 0.00 0.00 0.00 99 1017.4
20260904013924 66 223 0.0 0.0 0.00 0.00 0.00 99 1017.5
20260904013419 66 223 0.0 0.0 0.00 0.00 0.00 99 1017.5
20260904012915 66 223 0.0 0.0 0.00 0.00 0.00 99 1017.6
20260904012415 66 223 0.0 0.0 0.00 0.00 0.00 99 1017.5
20260904011909 66 223 0.0 0.0 0.00 0.00 0.00 99 1017.5
20260904011404 67 223 0.0 0.0 0.00 0.00 0.00 99 1017.8
20260904010858 67 219 0.0 0.0 0.00 0.00 0.00 99 1017.9
20260904010356 67 219 0.0 0.0 0.00 0.00 0.00 99 1017.9
20260904005850 68 213 0.0 0.0 0.00 0.00 0.00 99 1018.0
20260904005346 68 210 0.0 0.0 0.00 0.00 0.00 99 1017.9
20260904004841 68 196 0.0 1.0 0.00 0.00 0.00 98 1017.8
20260904004337 68 208 0.0 0.0 0.00 0.00 0.00 99 1017.9
20260904003832 68 123 1.0 2.0 0.00 0.00 0.00 99 1017.8
20260904003328 69 50 0.0 2.0 0.00 0.00 0.00 99 1017.9
20260904002823 69 223 0.0 0.0 0.00 0.00 0.00 99 1017.6
20260904002319 68 223 0.0 0.0 0.00 0.00 0.00 99 1017.6
20260904001818 68 223 0.0 0.0 0.00 0.00 0.00 99 1017.5
20260904001313 68 223 0.0 0.0 0.00 0.00 0.00 99 1017.2
20260904000809 68 223 0.0 0.0 0.00 0.00 0.00 99 1016.8
20260904000308 68 223 0.0 0.0 0.00 0.00 0.00 99 1017.1
20260903235802 68 224 0.0 0.0 0.00 0.00 0.00 99 1017.0
20260903235259 69 224 0.0 0.0 0.00 0.00 0.00 99 1017.2
20260903234757 69 224 0.0 0.0 0.00 0.00 0.00 99 1017.4
20260903234254 69 224 0.0 0.0 0.00 0.00 0.00 99 1017.1
20260903233750 69 224 0.0 0.0 0.00 0.00 0.00 99 1017.3
20260903233246 69 224 0.0 0.0 0.00 0.00 0.00 99 1017.1
20260903232744 69 224 0.0 0.0 0.00 0.00 0.00 99 1017.0
20260903232241 69 224 0.0 0.0 0.00 0.00 0.00 99 1016.9
20260903231739 70 224 0.0 0.0 0.00 0.00 0.00 99 1017.3
20260903231235 70 223 0.0 0.0 0.00 0.00 0.00 99 1017.4
20260903230731 70 223 0.0 0.0 0.00 0.00 0.00 99 1017.1
20260903230225 70 223 0.0 0.0 0.00 0.00 0.00 99 1017.1
20260903225722 70 223 0.0 0.0 0.00 0.00 0.00 99 1017.1
20260903225218 71 223 0.0 0.0 0.00 0.00 0.00 99 1016.9
20260903224714 71 223 0.0 0.0 0.00 0.00 0.00 99 1016.9
20260903224210 71 223 0.0 0.0 0.00 0.00 0.00 99 1016.8
20260903223705 71 223 0.0 0.0 0.00 0.00 0.00 99 1017.0
20260903223203 71 223 0.0 0.0 0.00 0.00 0.00 99 1017.0
20260903222704 71 223 0.0 0.0 0.00 0.00 0.00 99 1016.7
20260903222202 71 223 0.0 0.0 0.00 0.00 0.00 99 1016.9
20260903221658 71 223 0.0 0.0 0.00 0.00 0.00 99 1016.5
20260903221156 71 223 0.0 0.0 0.00 0.00 0.00 98 1016.6
20260903220655 72 223 0.0 0.0 0.00 0.00 0.00 98 1016.8
20260903220149 72 220 0.0 0.0 0.00 0.00 0.00 98 1016.8
20260903215648 72 220 0.0 0.0 0.00 0.00 0.00 97 1016.9
20260903215144 72 220 0.0 0.0 0.00 0.00 0.00 97 1016.7
20260903214642 73 219 0.0 0.0 0.00 0.00 0.00 96 1016.6
20260903214138 73 219 0.0 0.0 0.00 0.00 0.00 95 1016.9
20260903213633 74 220 0.0 0.0 0.00 0.00 0.00 92 1016.5
20260903213129 73 240 1.0 1.0 0.00 0.00 0.00 91 1016.7
20260903212624 73 217 0.0 0.0 0.00 0.00 0.00 94 1016.8
20260903212120 74 232 0.0 0.0 0.00 0.00 0.00 92 1016.8
20260903211614 74 221 0.0 0.0 0.00 0.00 0.00 93 1016.9
20260903211112 74 231 0.0 1.0 0.00 0.00 0.00 90 1016.6
20260903210607 75 229 0.0 0.0 0.00 0.00 0.00 90 1016.7
20260903205601 75 228 0.0 2.0 0.00 0.00 0.00 92 1016.9
20260903205055 75 224 0.0 1.0 0.00 0.00 0.00 91 1016.9
20260903204551 75 229 0.0 0.0 0.00 0.00 0.00 90 1017.0
20260903204046 75 220 0.0 0.0 0.00 0.00 0.00 91 1016.9
20260903203542 75 207 0.0 0.0 0.00 0.00 0.00 89 1016.9
20260903203042 75 234 0.0 2.0 0.00 0.00 0.00 89 1016.9
20260903202537 75 180 1.0 2.0 0.00 0.00 0.00 89 1016.9
20260903202033 75 194 1.0 2.0 0.00 0.00 0.00 88 1016.8
20260903201527 75 207 0.0 0.0 0.00 0.00 0.00 88 1017.0
20260903201026 75 231 0.0 0.0 0.00 0.00 0.00 90 1016.9
20260903200521 75 266 0.0 2.0 0.00 0.00 0.00 89 1016.9
20260903200016 75 271 0.0 2.0 0.00 0.00 0.00 89 1016.8
20260903195512 75 210 0.0 0.0 0.00 0.00 0.00 89 1016.6
20260903195008 74 212 0.0 0.0 0.00 0.00 0.00 88 1016.5
20260903194503 74 206 0.0 0.0 0.00 0.00 0.00 90 1016.6
20260903193958 74 207 0.0 0.0 0.00 0.00 0.00 92 1016.8
20260903193454 74 266 0.0 1.0 0.00 0.00 0.00 91 1016.7
20260903192949 75 202 0.0 0.0 0.00 0.00 0.00 92 1016.9
20260903192446 75 238 0.0 1.0 0.00 0.00 0.00 90 1016.9
20260903191940 75 254 0.0 0.0 0.00 0.00 0.00 92 1016.9
20260903191437 74 248 1.0 1.0 0.00 0.00 0.00 91 1016.9
20260903190936 73 235 0.0 0.0 0.00 0.00 0.00 96 1017.2
20260903190431 73 235 0.0 0.0 0.00 0.00 0.00 95 1017.1
20260903185930 73 226 0.0 0.0 0.00 0.00 0.00 95 1017.1
20260903185426 74 226 0.0 0.0 0.00 0.00 0.00 94 1017.2
20260903184921 74 226 0.0 1.0 0.00 0.00 0.00 92 1017.4
20260903184418 74 179 0.0 0.0 0.00 0.00 0.00 92 1017.1
20260903183918 73 208 0.0 0.0 0.00 0.00 0.00 93 1017.3
20260903183413 73 233 0.0 0.0 0.00 0.00 0.00 95 1017.3
20260903182912 73 227 0.0 0.0 0.00 0.00 0.00 95 1017.3
20260903182411 73 231 0.0 0.0 0.00 0.00 0.00 94 1017.4
20260903181907 73 223 0.0 0.0 0.00 0.00 0.00 94 1017.3
20260903181401 73 236 0.0 0.0 0.00 0.00 0.00 94 1017.4
20260903180900 73 206 0.0 0.0 0.00 0.00 0.00 93 1017.1
20260903180355 73 225 0.0 2.0 0.00 0.00 0.00 92 1017.4
20260903175854 73 235 0.0 1.0 0.00 0.00 0.00 91 1017.3
20260903175349 74 230 0.0 0.0 0.00 0.00 0.00 92 1017.4
20260903174843 74 207 1.0 2.0 0.00 0.00 0.00 89 1017.3
20260903174338 73 198 0.0 0.0 0.00 0.00 0.00 91 1017.3
20260903173833 72 213 0.0 1.0 0.00 0.00 0.00 93 1017.3
20260903173328 72 201 0.0 0.0 0.00 0.00 0.00 94 1017.3
20260903172824 71 147 0.0 1.0 0.00 0.00 0.00 94 1017.3
20260903172318 71 229 0.0 0.0 0.00 0.00 0.00 96 1017.2
20260903171814 71 225 0.0 0.0 0.00 0.00 0.00 95 1017.4
20260903171310 71 230 0.0 0.0 0.00 0.00 0.00 96 1017.5
20260903170809 70 223 0.0 0.0 0.00 0.00 0.00 96 1017.3
20260903170303 70 201 0.0 0.0 0.00 0.00 0.00 95 1017.5
20260903165802 70 263 0.0 0.0 0.00 0.00 0.00 95 1017.6
20260903165257 71 231 0.0 0.0 0.00 0.00 0.00 95 1017.3
20260903164751 71 236 0.0 0.0 0.00 0.00 0.00 93 1017.5
20260903164247 71 160 0.0 0.0 0.00 0.00 0.00 93 1017.5
20260903163746 72 161 0.0 0.0 0.00 0.00 0.00 92 1017.4
20260903163243 72 229 0.0 0.0 0.00 0.00 0.00 93 1017.5
20260903162738 72 194 0.0 1.0 0.00 0.00 0.00 92 1017.4
20260903162235 71 174 0.0 0.0 0.00 0.00 0.00 92 1017.6
20260903161730 71 205 0.0 1.0 0.00 0.00 0.00 93 1017.4
20260903161226 70 233 1.0 2.0 0.00 0.00 0.00 94 1017.5
20260903160721 70 216 0.0 0.0 0.00 0.00 0.00 96 1017.8
20260903160220 70 264 1.0 1.0 0.00 0.00 0.00 94 1017.6
20260903155719 70 213 0.0 0.0 0.00 0.00 0.00 93 1017.5
20260903155214 71 247 0.0 0.0 0.00 0.00 0.00 92 1017.9
20260903154709 71 202 0.0 0.0 0.00 0.00 0.00 91 1017.9
20260903154206 71 193 2.0 2.0 0.00 0.00 0.00 91 1018.0
20260903153701 69 201 0.0 0.0 0.00 0.00 0.00 95 1017.6
20260903153157 69 175 1.0 2.0 0.00 0.00 0.00 95 1017.8
20260903152653 69 162 0.0 1.0 0.00 0.00 0.00 96 1017.5
20260903152149 68 222 0.0 0.0 0.00 0.00 0.00 97 1017.6
20260903151649 69 30 1.0 1.0 0.00 0.00 0.00 96 1017.8
20260903151148 69 223 0.0 0.0 0.00 0.00 0.00 96 1017.9
20260903150643 69 215 0.0 3.0 0.00 0.00 0.00 95 1017.8
20260903150138 69 52 1.0 1.0 0.00 0.00 0.00 95 1017.8
20260903145638 70 166 1.0 2.0 0.00 0.00 0.00 94 1017.5
20260903145133 70 203 1.0 3.0 0.00 0.00 0.00 93 1017.4
20260903144631 69 207 0.0 2.0 0.00 0.00 0.00 94 1017.6
20260903144128 70 197 1.0 2.0 0.00 0.00 0.00 93 1017.9
20260903143624 69 133 1.0 1.0 0.00 0.00 0.00 95 1017.6
20260903143120 68 222 0.0 0.0 0.00 0.00 0.00 96 1017.5
20260903142615 68 235 0.0 1.0 0.00 0.00 0.00 96 1017.6
20260903142111 68 252 0.0 3.0 0.00 0.00 0.00 97 1017.8
20260903141606 69 40 1.0 2.0 0.00 0.00 0.00 96 1017.8
20260903141101 69 211 0.0 2.0 0.00 0.00 0.00 94 1017.4
20260903140557 70 194 1.0 3.0 0.00 0.00 0.00 93 1017.5
20260903140052 71 323 0.0 2.0 0.00 0.00 0.00 92 1017.3
20260903135549 71 201 0.0 1.0 0.00 0.00 0.00 92 1017.2
20260903135049 71 204 0.0 0.0 0.00 0.00 0.00 93 1017.1
20260903134548 70 226 0.0 1.0 0.00 0.00 0.00 94 1017.0
20260903134044 69 153 0.0 0.0 0.00 0.00 0.00 96 1017.2
20260903133541 69 200 0.0 1.0 0.00 0.00 0.00 96 1017.1
20260903133037 68 197 0.0 2.0 0.00 0.00 0.00 96 1017.1
20260903132531 68 200 0.0 1.0 0.00 0.00 0.00 96 1017.1
20260903132027 68 190 0.0 1.0 0.00 0.00 0.00 96 1017.1
20260903131521 68 149 0.0 2.0 0.00 0.00 0.00 97 1017.0
20260903131020 69 187 0.0 0.0 0.00 0.00 0.00 96 1016.8
20260903130515 68 244 0.0 0.0 0.00 0.00 0.00 97 1016.9
20260903130015 69 49 1.0 1.0 0.00 0.00 0.00 97 1016.9
20260903125513 69 136 0.0 0.0 0.00 0.00 0.00 98 1017.1
20260903125008 68 191 0.0 0.0 0.00 0.00 0.00 99 1017.0
20260903124503 67 86 0.0 1.0 0.00 0.00 0.00 99 1017.2
20260903124002 67 180 0.0 0.0 0.00 0.00 0.00 99 1017.0
20260903123457 67 101 0.0 3.0 0.00 0.00 0.00 99 1017.0
20260903122956 66 202 0.0 0.0 0.00 0.00 0.00 99 1016.8
20260903122456 66 202 0.0 2.0 0.00 0.00 0.00 99 1017.1
20260903121950 66 227 0.0 0.0 0.00 0.00 0.00 99 1016.9
20260903121450 66 291 0.0 1.0 0.00 0.00 0.00 99 1016.9
20260903120946 65 81 0.0 1.0 0.00 0.00 0.00 99 1016.9
20260903120445 65 181 0.0 0.0 0.00 0.00 0.00 99 1016.9